Regional Weather Roundup
Issued by NWS Green Bay, WI

Home | Current Version | Previous Version | Graphics & Text | Print | Product List | Glossary Off
Versions: 1 2 3 4 5 6 7 8 9 10 11 12 13 14 15 16 17 18 19 20 21 22 23 24 25 26 27 28 29 30 31 32 33 34 35 36 37 38 39 40 41 42 43 44 45 46 47 48 49 50

000
ASUS43 KGRB 222310
RWRGRB

NORTH-CENTRAL AND NORTHEAST WISCONSIN REGIONAL WEATHER ROUNDUP
NATIONAL WEATHER SERVICE GREEN BAY WI
600 PM CDT TUE APR 22 2014

WIZ005-009-010>012-018-019-230000-
NORTH CENTRAL WISCONSIN

CITY           SKY/WX    TMP DP  RH WIND       PRES   REMARKS
IRONWOOD       SUNNY     45  23  42 N8        30.04S
MANITOWISH WTR MOSUNNY   44  24  45 N7        30.06R
ARBOR VITAE    MOSUNNY   46  24  43 N13G23    30.06R
EAGLE RIVER    CLOUDY    41  23  47 N12G17    30.05R
LAND O LAKES   PTSUNNY   43  25  50 N16G22    30.06R
RHINELANDER    MOSUNNY   43  24  47 N7G20     30.06R
PHILLIPS       MOSUNNY   47  26  43 N8        30.05R
ANTIGO         SUNNY     43  29  56 N17       30.04R
TOMAHAWK       SUNNY     45  24  43 N12G17    30.06R
MERRILL        SUNNY     47  26  42 N14       30.05R
$$

WIZ013-073-230000-
NORTHEAST WISCONSIN

CITY           SKY/WX    TMP DP  RH WIND       PRES   REMARKS
IRON MOUNTAIN  CLOUDY    40  26  57 N16G25    30.03R
MARINETTE      CLOUDY    43  27  52 N18       30.02R
OCONTO         CLOUDY    45  27  49 N12G21    30.02R
$$

WIZ017-030-035>037-045-230000-
CENTRAL WISCONSIN

CITY           SKY/WX    TMP DP  RH WIND       PRES   REMARKS
MEDFORD        SUNNY     48  25  40 N13G20    30.04R
WAUSAU         SUNNY     49  24  37 N12G18    30.03R
MOSINEE        SUNNY     48  25  40 N14       30.04R
MARSHFIELD     SUNNY     52  25  35 N18G25    30.03R
WISC RAPIDS    SUNNY     53  23  31 N13G26    30.03S
STEVENS POINT  SUNNY     49  22  34 N15G21    30.03R
WAUPACA        SUNNY     54  21  28 NW12      30.02S
SHAWANO        MOSUNNY   50  27  40 N12       30.03R
CLINTONVILLE   SUNNY     50  23  34 N10G21    30.01S
$$

WIZ038-039-048-051-230000-
FOX VALLEY

CITY           SKY/WX    TMP DP  RH WIND       PRES   REMARKS
NWS GREEN BAY  MOSUNNY   49  30  48 N14G22    30.02S
APPLETON       MOSUNNY  N/A N/A N/A N12       30.02R
OSHKOSH        SUNNY     51  24  34 N20       30.00S
FOND DU LAC    SUNNY     51  27  39 N18G25    30.00S
$$

WIZ022-050-052-230000-
EAST CENTRAL WISCONSIN

CITY           SKY/WX    TMP DP  RH WIND       PRES   REMARKS
STURGEON BAY   CLOUDY    43  28  56 N17       30.02R
MANITOWOC      SUNNY     47  28  47 N15G24    30.01S
SHEBOYGAN      SUNNY     49  28  44 N13       30.00R
$$

LMZ563-521-522-541>543-230000-
LAKESHORE

STATION/POSITION TIME  TEMP    WIND        PRES    VSBY  WAVE
                       AIR SEA DIR/SP/G                  HT/PER
                 (UTC) (F)     (DEG/KT/KT) (MB)    (MI)  (FT/S)
SHEBOYGAN LKSHOR 2300   44      10/ 13/ 14 1016.8R
KEWAUNEE LKSHORE 2300   46     340/ 11/ 19 1016.8S
NORTHPORT PIER   2300   35     340/ 11/ 14 1016.6R
SISTER BAY LKSHO 2300   35     350/  7/  8   N/A
MENOMINEE LKSHOR 2300   41     320/ 23/ 29 1017.0R
$$



USA.gov is the U.S. government's official web portal to all federal, state and local government web resources and services.